"Pseudo-MPEC" for C35FJJ2

Created 2020 Sep 19 20:07:07 UT using Find_Orb

Click here for an explanation of pseudo-MPECs

 
 Astrometry: 
     C35FJJ2  C2020 09 10.40519 01 04 52.67 -04 20 50.2    ~9AAb 20.8 GVNEOCPG96
     C35FJJ2  C2020 09 10.41043 01 04 47.30 -04 21 08.8    ~9AAb 20.6 GVNEOCPG96
     C35FJJ2  C2020 09 10.41568 01 04 42.07 -04 21 26.5    ~9AAb 21.0 GVNEOCPG96
     C35FJJ2  C2020 09 10.42094 01 04 36.68 -04 21 45.0    ~9AAb 21.9 GVNEOCPG96
     C35FJJ2  C2020 09 10.46819 01 03 50.12 -04 24 24.3    ~9ABb 21.5 GVNEOCPV06
     C35FJJ2  C2020 09 10.46982 01 03 48.58 -04 24 29.4    ~9ABb 20.4 GVNEOCPV06
     C35FJJ2  C2020 09 10.47145 01 03 46.99 -04 24 35.3    ~9ABb 21.6 GVNEOCPV06
     C35FJJ2  C2020 09 10.47307 01 03 45.46 -04 24 40.2    ~9ABb 21.1 GVNEOCPV06

Station data:
(G96) Mt. Lemmon Survey  (N32.442754 W110.788720)  US/Arizona.  Observers T.
   A. Pruyne, B. M. Africano, E. J. Christensen, G. A. Farneth, D. C. Fuls,
   A. R. Gibbs, A. D. Grauer, H. Gröller, J. A. Johnson, R. A. Kowalski, S.
   M. Larson, G. J. Leonard, D. Rankin, R. L. Seaman, F. C. Shelly. 1.5-m
   reflector + 10K CCD.
(V06) Catalina Sky Survey-Kuiper  (N32.416847 W110.732550)  US/Arizona.
   Observers T. A. Pruyne, B. M. Africano, E. J. Christensen, G. A. Farneth,
   D. C. Fuls, A. R. Gibbs, A. D. Grauer, H. Gröller, J. A. Johnson, R. A.
   Kowalski, S. M. Larson, G. J. Leonard, D. Rankin, R. L. Seaman, F. C.
   Shelly. 1.55-m reflector + CCD.

Orbital elements:  C35FJJ2
   Perihelion 2021 Feb 21.870876 +/- 180 TT = 20:54:03 (JD 2459267.370876)
Epoch 2020 Sep 10.0 TT = JDT 2459102.5   Earth MOID: 0.0001   AutoNEOCP
M 191.47140413 +/- 180              (J2000 ecliptic)
n   1.02218535 +/- 0.233            Peri.  113.86762 +/- 17
a   0.97599953 +/- 0.198            Node    43.15555 +/- 170
e   0.0389286 +/- 0.0566            Incl.    0.08702 +/- 0.57
P   0.96/352.18d           H 30.9   G  0.15   U 11.8  
q 0.93800516 +/- 0.111    Q 1.01399390 +/- 0.243
From 8 observations 2020 Sept. 10 (97.7 min); mean residual 0".32
Residuals in arcseconds: 
200910 G96  .32+  .04+    200910 G96  .58-  .03-    200910 V06  .23-  .30-    
200910 G96  .52-  .27-    200910 V06  .07+  .08-    200910 V06  .08-  .15+    
200910 G96  .69+  .28+    200910 V06  .32+  .21+    

Ephemerides (geocentric):
Date (UTC) HH   RA              Dec         delta   r     elong  mag " sig PA
---- -- -- --  -------------   -----------  ------ ------ -----  --- ---- ---
2020 09 19 20  23 17 42.206   -13 41 23.00  972564 1.0107 165.3 20.8  18d  70
2020 09 19 21  23 17 09.908   -13 43 42.95  972267 1.0106 165.1 20.9  18d  70
2020 09 19 22  23 16 37.587   -13 46 02.61  971970 1.0106 165.0 20.9  18d  70
2020 09 19 23  23 16 05.243   -13 48 22.01  971675 1.0106 164.8 20.9  18d  70
2020 09 20 00  23 15 32.876   -13 50 41.12  971381 1.0106 164.7 20.9  18d  70
2020 09 20 01  23 15 00.487   -13 52 59.96  971089 1.0106 164.6 20.9  19d  70
2020 09 20 02  23 14 28.076   -13 55 18.51  970797 1.0105 164.4 20.9  19d  70
2020 09 20 03  23 13 55.642   -13 57 36.78  970507 1.0105 164.3 20.9  19d  70
2020 09 20 04  23 13 23.186   -13 59 54.77  970218 1.0105 164.1 20.9  19d  70
2020 09 20 05  23 12 50.709   -14 02 12.47  969930 1.0105 164.0 20.9  19d  70
2020 09 20 06  23 12 18.209   -14 04 29.88  969643 1.0105 163.9 20.9  19d  70
2020 09 20 07  23 11 45.688   -14 06 47.00  969357 1.0105 163.7 20.9  19d  70
2020 09 20 08  23 11 13.146   -14 09 03.82  969073 1.0104 163.6 20.9  19d  70
2020 09 20 09  23 10 40.582   -14 11 20.35  968789 1.0104 163.4 20.9  20d  70
2020 09 20 10  23 10 07.997   -14 13 36.59  968507 1.0104 163.3 20.9  20d  70
2020 09 20 11  23 09 35.391   -14 15 52.52  968226 1.0104 163.1 20.9  20d  70
2020 09 20 12  23 09 02.765   -14 18 08.16  967946 1.0104 163.0 20.9  20d  70
2020 09 20 13  23 08 30.117   -14 20 23.49  967667 1.0103 162.8 20.9  20d  70
2020 09 20 14  23 07 57.449   -14 22 38.52  967389 1.0103 162.7 20.9  20d  70
2020 09 20 15  23 07 24.761   -14 24 53.25  967112 1.0103 162.5 20.9  20d  70
2020 09 20 16  23 06 52.052   -14 27 07.66  966836 1.0103 162.4 20.9  20d  71
2020 09 20 17  23 06 19.324   -14 29 21.77  966561 1.0103 162.2 20.9  21d  71
2020 09 20 18  23 05 46.575   -14 31 35.57  966288 1.0103 162.1 20.9  21d  71
2020 09 20 19  23 05 13.807   -14 33 49.05  966015 1.0102 161.9 20.9  21d  71
2020 09 20 20  23 04 41.019   -14 36 02.22  965743 1.0102 161.8 21.0  21d  71
2020 09 20 21  23 04 08.211   -14 38 15.08  965473 1.0102 161.6 21.0  21d  71
2020 09 20 22  23 03 35.384   -14 40 27.61  965203 1.0102 161.5 21.0  21d  71
2020 09 20 23  23 03 02.537   -14 42 39.83  964934 1.0102 161.3 21.0  21d  71
2020 09 21 00  23 02 29.672   -14 44 51.73  964667 1.0101 161.2 21.0  21d  71
2020 09 21 01  23 01 56.787   -14 47 03.30  964400 1.0101 161.0 21.0  22d  71
2020 09 21 02  23 01 23.884   -14 49 14.55  964134 1.0101 160.9 21.0  22d  71
2020 09 21 03  23 00 50.962   -14 51 25.47  963869 1.0101 160.7 21.0  22d  71
2020 09 21 04  23 00 18.021   -14 53 36.07  963605 1.0101 160.5 21.0  22d  71
2020 09 21 05  22 59 45.061   -14 55 46.34  963342 1.0100 160.4 21.0  22d  71
2020 09 21 06  22 59 12.084   -14 57 56.28  963080 1.0100 160.2 21.0  22d  71
2020 09 21 07  22 58 39.088   -15 00 05.88  962819 1.0100 160.1 21.0  22d  71
2020 09 21 08  22 58 06.074   -15 02 15.16  962559 1.0100 159.9 21.0  22d  71
2020 09 21 09  22 57 33.041   -15 04 24.09  962299 1.0100 159.8 21.0  23d  71
2020 09 21 10  22 56 59.991   -15 06 32.70  962041 1.0099 159.6 21.0  23d  71
2020 09 21 11  22 56 26.924   -15 08 40.96  961783 1.0099 159.4 21.0  23d  71
2020 09 21 12  22 55 53.838   -15 10 48.88  961526 1.0099 159.3 21.0  23d  72
2020 09 21 13  22 55 20.735   -15 12 56.47  961270 1.0099 159.1 21.0  23d  72
2020 09 21 14  22 54 47.614   -15 15 03.71  961015 1.0099 159.0 21.0  23d  72
2020 09 21 15  22 54 14.477   -15 17 10.61  960760 1.0098 158.8 21.0  23d  72
2020 09 21 16  22 53 41.321   -15 19 17.16  960507 1.0098 158.7 21.0  23d  72
2020 09 21 17  22 53 08.149   -15 21 23.37  960254 1.0098 158.5 21.0  24d  72
2020 09 21 18  22 52 34.960   -15 23 29.23  960002 1.0098 158.3 21.0  24d  72
2020 09 21 19  22 52 01.754   -15 25 34.74  959750 1.0098 158.2 21.1  24d  72